CSZ633 ZGSZ-RKSI

Flight info

Callsign CSZ633
Flight time 3h 5m
Altitude 35100
Route IDUMA9WD IDUMA W41 DOPKU G471 EGEDA/K0863S1040 G471 PLT/K0857S1070 A599 JTN G327 LAMEN/N0459F350 A593 SADLI Y590 ELGEP Y722 OLMEN OLMEN1Y
Aircraft B738/M-SDE2E3FGHIRWXY/LB1

Departure

Time 2026-04-12 07:08
Airport Shenzhen Bao'an International Airport (ZGSZ)

Arrival

Time 2026-04-12 10:13
Airport Incheon International Airport (RKSI)
Time Latitude Longitude Altitude Speed Heading
2026-04-12 06:03 22.63643 113.81614 14 ft 0 kts 243°
2026-04-12 06:52 22.63641 113.81610 14 ft 2 kts 243°
2026-04-12 06:52 22.63630 113.81587 14 ft 5 kts 242°
2026-04-12 06:52 22.63597 113.81573 14 ft 6 kts 166°
2026-04-12 06:53 22.63555 113.81593 14 ft 7 kts 154°
2026-04-12 06:53 22.63506 113.81620 14 ft 9 kts 153°
2026-04-12 06:53 22.63446 113.81653 14 ft 11 kts 153°
2026-04-12 06:53 22.63366 113.81696 15 ft 15 kts 153°
2026-04-12 06:54 22.63262 113.81753 14 ft 18 kts 153°
2026-04-12 06:54 22.63138 113.81823 14 ft 21 kts 152°
2026-04-12 06:54 22.62997 113.81899 14 ft 24 kts 154°
2026-04-12 06:54 22.62854 113.81978 14 ft 23 kts 153°
2026-04-12 06:55 22.62715 113.82054 14 ft 22 kts 152°
2026-04-12 06:55 22.62580 113.82128 14 ft 21 kts 153°
2026-04-12 06:55 22.62445 113.82203 14 ft 23 kts 153°
2026-04-12 06:55 22.62289 113.82289 14 ft 27 kts 153°
2026-04-12 06:56 22.62121 113.82381 14 ft 26 kts 153°
2026-04-12 06:56 22.61961 113.82469 14 ft 25 kts 152°
2026-04-12 06:56 22.61865 113.82520 14 ft 10 kts 165°
2026-04-12 06:56 22.61805 113.82497 14 ft 9 kts 224°
2026-04-12 06:57 22.61770 113.82434 14 ft 12 kts 243°
2026-04-12 06:57 22.61724 113.82334 14 ft 18 kts 243°
2026-04-12 06:57 22.61669 113.82215 14 ft 17 kts 243°
2026-04-12 06:57 22.61618 113.82104 14 ft 13 kts 244°
2026-04-12 06:58 22.61606 113.82032 14 ft 9 kts 290°
2026-04-12 06:58 22.61656 113.81986 14 ft 11 kts 333°
2026-04-12 06:58 22.61747 113.81936 14 ft 19 kts 332°
2026-04-12 06:58 22.61882 113.81862 14 ft 23 kts 333°
2026-04-12 06:59 22.62021 113.81784 14 ft 22 kts 329°
2026-04-12 06:59 22.62155 113.81709 14 ft 21 kts 333°
2026-04-12 06:59 22.62288 113.81639 14 ft 21 kts 334°
2026-04-12 07:00 22.62503 113.81521 14 ft 10 kts 333°
2026-04-12 07:00 22.62566 113.81531 15 ft 10 kts 44°
2026-04-12 07:00 22.62621 113.81560 14 ft 10 kts 344°
2026-04-12 07:00 22.62689 113.81524 14 ft 14 kts 335°
2026-04-12 07:01 22.62798 113.81465 14 ft 21 kts 333°
2026-04-12 07:01 22.62947 113.81383 14 ft 27 kts 333°
2026-04-12 07:01 22.63125 113.81285 14 ft 28 kts 333°
2026-04-12 07:01 22.63294 113.81193 14 ft 26 kts 333°
2026-04-12 07:02 22.63450 113.81107 14 ft 25 kts 333°
2026-04-12 07:02 22.63598 113.81025 14 ft 23 kts 333°
2026-04-12 07:02 22.63739 113.80948 14 ft 22 kts 333°
2026-04-12 07:02 22.63876 113.80873 14 ft 22 kts 333°
2026-04-12 07:03 22.64009 113.80800 14 ft 21 kts 333°
2026-04-12 07:03 22.64138 113.80729 15 ft 21 kts 333°
2026-04-12 07:03 22.64264 113.80660 14 ft 20 kts 333°
2026-04-12 07:03 22.64385 113.80593 14 ft 19 kts 333°
2026-04-12 07:04 22.64503 113.80528 14 ft 19 kts 333°
2026-04-12 07:04 22.64617 113.80466 14 ft 18 kts 333°
2026-04-12 07:04 22.64732 113.80403 14 ft 20 kts 333°
2026-04-12 07:04 22.64874 113.80324 15 ft 24 kts 333°
2026-04-12 07:05 22.65019 113.80244 14 ft 23 kts 333°
2026-04-12 07:05 22.65140 113.80178 14 ft 11 kts 333°
2026-04-12 07:05 22.65181 113.80166 15 ft 6 kts
2026-04-12 07:05 22.65212 113.80188 15 ft 6 kts 58°
2026-04-12 07:06 22.65230 113.80225 15 ft 6 kts 63°
2026-04-12 07:06 22.65247 113.80262 14 ft 5 kts 63°
2026-04-12 07:06 22.65264 113.80299 14 ft 5 kts 63°
2026-04-12 07:06 22.65255 113.80332 14 ft 5 kts 148°
2026-04-12 07:07 22.65221 113.80350 14 ft 5 kts 152°
2026-04-12 07:07 22.65169 113.80380 14 ft 20 kts 153°
2026-04-12 07:07 22.64823 113.80569 14 ft 91 kts 153°
2026-04-12 07:07 22.64056 113.80978 16 ft 153 kts 153°
2026-04-12 07:08 22.63030 113.81589 466 ft 173 kts 154°
2026-04-12 07:08 22.61979 113.82170 1574 ft 161 kts 157°
2026-04-12 07:08 22.60966 113.82714 2324 ft 168 kts 157°
2026-04-12 07:08 22.59923 113.83268 3096 ft 167 kts 158°
2026-04-12 07:09 22.58842 113.83841 3552 ft 189 kts 158°
2026-04-12 07:09 22.57583 113.84511 3756 ft 214 kts 158°
2026-04-12 07:09 22.56184 113.85262 4053 ft 231 kts 158°
2026-04-12 07:09 22.54716 113.86056 4588 ft 240 kts 158°
2026-04-12 07:10 22.53320 113.87085 5297 ft 250 kts 139°
2026-04-12 07:10 22.52264 113.88637 5933 ft 264 kts 122°
2026-04-12 07:10 22.51605 113.90533 6593 ft 272 kts 111°
2026-04-12 07:10 22.51212 113.92566 7185 ft 285 kts 91°
2026-04-12 07:11 22.51734 113.94676 7728 ft 296 kts 63°
2026-04-12 07:11 22.52735 113.96574 8748 ft 286 kts 61°
2026-04-12 07:11 22.53696 113.98462 9480 ft 288 kts 62°
2026-04-12 07:11 22.54702 114.00326 10093 ft 293 kts 49°
2026-04-12 07:12 22.56299 114.01696 10562 ft 299 kts 21°
2026-04-12 07:12 22.58387 114.02241 10764 ft 315 kts
2026-04-12 07:12 22.60619 114.02454 10919 ft 337 kts
2026-04-12 07:12 22.63025 114.02660 11074 ft 357 kts
2026-04-12 07:13 22.65555 114.02900 11386 ft 371 kts
2026-04-12 07:13 22.68142 114.03165 11903 ft 376 kts
2026-04-12 07:13 22.70764 114.03297 12480 ft 375 kts 349°
2026-04-12 07:13 22.73251 114.02586 13070 ft 368 kts 333°
2026-04-12 07:14 22.74822 114.01888 13495 ft 369 kts 331°
2026-04-12 07:14 22.77195 114.00788 14002 ft 372 kts 330°
2026-04-12 07:14 22.79564 113.99689 14545 ft 374 kts 330°
2026-04-12 07:14 22.82763 113.98234 15257 ft 377 kts 331°
2026-04-12 07:15 22.84402 113.97500 15605 ft 378 kts 331°
2026-04-12 07:15 22.86847 113.96409 16104 ft 381 kts 331°
2026-04-12 07:15 22.89343 113.95498 16559 ft 393 kts 344°
2026-04-12 07:15 22.92124 113.95466 17040 ft 407 kts
2026-04-12 07:16 22.94940 113.95929 17468 ft 413 kts
2026-04-12 07:16 22.97795 113.96464 17855 ft 418 kts
2026-04-12 07:16 23.00669 113.97014 18289 ft 420 kts
2026-04-12 07:16 23.03558 113.97555 18711 ft 421 kts
2026-04-12 07:17 23.06449 113.98081 19114 ft 423 kts
2026-04-12 07:17 23.09365 113.98598 19492 ft 425 kts
2026-04-12 07:17 23.12289 113.99110 19869 ft 428 kts
2026-04-12 07:17 23.15239 113.99624 20253 ft 430 kts
2026-04-12 07:18 23.18201 114.00140 20630 ft 432 kts
2026-04-12 07:18 23.21169 114.00657 20999 ft 434 kts
2026-04-12 07:18 23.24162 114.01180 21367 ft 436 kts
2026-04-12 07:18 23.27173 114.01706 21727 ft 439 kts
2026-04-12 07:19 23.30189 114.02055 22072 ft 435 kts 355°
2026-04-12 07:19 23.33211 114.01976 22430 ft 433 kts 351°
2026-04-12 07:19 23.36219 114.01784 22781 ft 434 kts 351°
2026-04-12 07:19 23.39249 114.01591 23133 ft 437 kts 351°
2026-04-12 07:20 23.42298 114.01433 23459 ft 439 kts 352°
2026-04-12 07:20 23.45349 114.01301 23759 ft 441 kts 353°
2026-04-12 07:20 23.48445 114.01610 24002 ft 453 kts
2026-04-12 07:20 23.51473 114.02715 24196 ft 466 kts 21°
2026-04-12 07:21 23.54237 114.04594 24485 ft 473 kts 34°
2026-04-12 07:21 23.56836 114.06798 24827 ft 473 kts 35°
2026-04-12 07:21 23.59409 114.09042 25043 ft 477 kts 35°
2026-04-12 07:21 23.62015 114.11309 25247 ft 480 kts 35°
2026-04-12 07:22 23.64645 114.13571 25502 ft 481 kts 34°
2026-04-12 07:22 23.67284 114.15813 25779 ft 483 kts 34°
2026-04-12 07:22 23.69950 114.18060 26030 ft 485 kts 34°
2026-04-12 07:22 23.72628 114.20311 26281 ft 486 kts 34°
2026-04-12 07:23 23.75306 114.22562 26530 ft 488 kts 34°
2026-04-12 07:23 23.77967 114.24802 26781 ft 489 kts 34°
2026-04-12 07:23 23.80704 114.27110 27032 ft 491 kts 34°
2026-04-12 07:23 23.83408 114.29384 27270 ft 492 kts 34°
2026-04-12 07:24 23.86111 114.31613 27506 ft 493 kts 33°
2026-04-12 07:24 23.88899 114.33885 27737 ft 495 kts 33°
2026-04-12 07:24 23.91637 114.36109 27965 ft 497 kts 33°
2026-04-12 07:24 23.94422 114.38373 28158 ft 499 kts 33°
2026-04-12 07:25 23.97240 114.40670 28380 ft 501 kts 33°
2026-04-12 07:25 23.99993 114.42925 28609 ft 501 kts 33°
2026-04-12 07:25 24.02819 114.45236 28825 ft 503 kts 33°
2026-04-12 07:25 24.05591 114.47508 29016 ft 505 kts 33°
2026-04-12 07:26 24.08406 114.49820 29249 ft 506 kts 33°
2026-04-12 07:26 24.11219 114.52130 29451 ft 507 kts 33°
2026-04-12 07:26 24.14050 114.54457 29606 ft 509 kts 33°
2026-04-12 07:26 24.16885 114.56787 29761 ft 512 kts 33°
2026-04-12 07:27 24.19739 114.59135 29950 ft 513 kts 33°
2026-04-12 07:27 24.22597 114.61489 30110 ft 514 kts 33°
2026-04-12 07:27 24.25451 114.63840 30256 ft 515 kts 33°
2026-04-12 07:27 24.28319 114.66203 30426 ft 516 kts 33°
2026-04-12 07:28 24.31198 114.68577 30619 ft 517 kts 33°
2026-04-12 07:28 24.34064 114.70941 30874 ft 516 kts 33°
2026-04-12 07:28 24.36927 114.73307 31208 ft 513 kts 33°
2026-04-12 07:28 24.39766 114.75653 31487 ft 511 kts 33°
2026-04-12 07:29 24.42607 114.78001 31712 ft 511 kts 33°
2026-04-12 07:29 24.45450 114.80351 31845 ft 512 kts 33°
2026-04-12 07:29 24.48292 114.82701 32025 ft 512 kts 33°
2026-04-12 07:29 24.51140 114.85059 32283 ft 512 kts 33°
2026-04-12 07:30 24.53984 114.87416 32568 ft 511 kts 33°
2026-04-12 07:30 24.56812 114.89758 32840 ft 510 kts 32°
2026-04-12 07:30 24.59783 114.91847 33050 ft 504 kts 24°
2026-04-12 07:30 24.62938 114.93458 33287 ft 499 kts 16°
2026-04-12 07:31 24.66236 114.94552 33487 ft 492 kts
2026-04-12 07:31 24.69543 114.95299 33706 ft 490 kts
2026-04-12 07:31 24.72926 114.96052 33932 ft 491 kts
2026-04-12 07:31 24.76268 114.96846 34097 ft 491 kts
2026-04-12 07:32 24.79594 114.97661 34314 ft 490 kts
2026-04-12 07:32 24.82927 114.98477 34517 ft 490 kts
2026-04-12 07:32 24.86210 114.99279 34716 ft 489 kts
2026-04-12 07:32 24.89568 115.00099 34892 ft 489 kts
2026-04-12 07:33 24.96199 115.01714 34902 ft 491 kts
2026-04-12 07:33 25.02845 115.03336 34902 ft 488 kts
2026-04-12 07:34 25.09454 115.04951 34903 ft 486 kts
2026-04-12 07:34 25.16039 115.06561 34905 ft 484 kts
2026-04-12 07:35 25.22610 115.08169 34902 ft 483 kts
2026-04-12 07:35 25.29163 115.09774 34905 ft 482 kts
2026-04-12 07:36 25.32449 115.10260 34886 ft 473 kts 354°
2026-04-12 07:36 25.35693 115.10023 34906 ft 463 kts 344°
2026-04-12 07:36 25.38797 115.09204 34899 ft 454 kts 333°
2026-04-12 07:36 25.41660 115.07834 34917 ft 448 kts 328°
2026-04-12 07:37 25.47300 115.04839 34901 ft 450 kts 328°
2026-04-12 07:37 25.52980 115.01859 34900 ft 453 kts 328°
2026-04-12 07:38 25.58715 114.98901 34896 ft 455 kts 328°
2026-04-12 07:38 25.64469 114.95944 34898 ft 456 kts 328°
2026-04-12 07:39 25.70201 114.92990 34896 ft 457 kts 328°
2026-04-12 07:39 25.76124 114.90362 34881 ft 470 kts 345°
2026-04-12 07:40 25.79436 114.90243 34901 ft 484 kts
2026-04-12 07:40 25.82726 114.91191 34901 ft 497 kts 18°
2026-04-12 07:40 25.85738 114.93142 34880 ft 508 kts 36°
2026-04-12 07:40 25.88274 114.95889 34925 ft 511 kts 43°
2026-04-12 07:41 25.93067 115.01729 34906 ft 512 kts 45°
2026-04-12 07:41 25.97842 115.07603 34899 ft 511 kts 44°
2026-04-12 07:42 26.02663 115.13405 34907 ft 510 kts 43°
2026-04-12 07:43 26.12353 115.24934 34899 ft 510 kts 43°
2026-04-12 07:43 26.17201 115.30716 34908 ft 511 kts 43°
2026-04-12 07:44 26.22046 115.36505 34910 ft 512 kts 43°
2026-04-12 07:44 26.26893 115.42308 34912 ft 512 kts 43°
2026-04-12 07:45 26.31743 115.48121 34910 ft 512 kts 43°
2026-04-12 07:45 26.36596 115.53945 34924 ft 513 kts 43°
2026-04-12 07:46 26.41459 115.59788 34910 ft 513 kts 43°
2026-04-12 07:46 26.46316 115.65623 34919 ft 513 kts 44°
2026-04-12 07:47 26.51133 115.71434 34914 ft 513 kts 43°
2026-04-12 07:47 26.55985 115.77292 34916 ft 514 kts 44°
2026-04-12 07:48 26.60838 115.83147 34932 ft 514 kts 43°
2026-04-12 07:48 26.65685 115.89014 34934 ft 514 kts 43°
2026-04-12 07:49 26.70327 115.94638 34954 ft 515 kts 44°
2026-04-12 07:49 26.75051 116.00368 34942 ft 516 kts 44°
2026-04-12 07:50 26.79921 116.06283 34938 ft 517 kts 44°
2026-04-12 07:50 26.84797 116.12215 34940 ft 517 kts 44°
2026-04-12 07:51 26.89670 116.18150 34946 ft 518 kts 44°
2026-04-12 07:51 26.94549 116.24082 34945 ft 518 kts 43°
2026-04-12 07:52 26.99454 116.29984 34938 ft 517 kts 43°
2026-04-12 07:52 27.04363 116.35894 34939 ft 517 kts 43°
2026-04-12 07:53 27.09252 116.41799 34936 ft 516 kts 43°
2026-04-12 07:53 27.14130 116.47704 34938 ft 516 kts 43°
2026-04-12 07:54 27.19001 116.53608 34941 ft 515 kts 43°
2026-04-12 07:54 27.23904 116.59476 34938 ft 514 kts 42°
2026-04-12 07:55 27.28845 116.65193 34950 ft 513 kts 41°
2026-04-12 07:55 27.33817 116.70946 34946 ft 513 kts 42°
2026-04-12 07:56 27.38765 116.76714 34943 ft 513 kts 42°
2026-04-12 07:56 27.43706 116.82492 34943 ft 512 kts 42°
2026-04-12 07:57 27.48651 116.88283 34948 ft 512 kts 42°
2026-04-12 07:57 27.53592 116.94063 34960 ft 513 kts 41°
2026-04-12 07:58 27.58566 116.99809 34984 ft 511 kts 41°
2026-04-12 07:58 27.63554 117.05564 34957 ft 513 kts 41°
2026-04-12 07:59 27.68535 117.11324 34956 ft 513 kts 41°
2026-04-12 07:59 27.73514 117.17098 34958 ft 514 kts 41°
2026-04-12 08:00 27.78488 117.22882 34942 ft 513 kts 41°
2026-04-12 08:00 27.83456 117.28674 34970 ft 513 kts 42°
2026-04-12 08:01 27.88430 117.34471 34967 ft 515 kts 41°
2026-04-12 08:01 27.93398 117.40244 34966 ft 516 kts 40°
2026-04-12 08:02 27.98380 117.46060 34941 ft 515 kts 41°
2026-04-12 08:02 28.03352 117.51886 34957 ft 514 kts 41°
2026-04-12 08:03 28.08324 117.57715 34961 ft 514 kts 41°
2026-04-12 08:03 28.13287 117.63537 34963 ft 514 kts 41°
2026-04-12 08:04 28.18246 117.69363 34964 ft 514 kts 41°
2026-04-12 08:04 28.22367 117.74212 34965 ft 513 kts 41°
2026-04-12 08:05 28.27319 117.80045 34965 ft 514 kts 41°
2026-04-12 08:05 28.32276 117.85894 34951 ft 515 kts 41°
2026-04-12 08:06 28.37246 117.91767 34957 ft 515 kts 41°
2026-04-12 08:06 28.42210 117.97642 34954 ft 516 kts 42°
2026-04-12 08:07 28.47114 118.03611 34957 ft 517 kts 43°
2026-04-12 08:07 28.51984 118.09642 34959 ft 519 kts 43°
2026-04-12 08:08 28.56882 118.15705 34954 ft 519 kts 43°
2026-04-12 08:08 28.61777 118.21750 34956 ft 520 kts 43°
2026-04-12 08:09 28.66687 118.27816 34953 ft 520 kts 43°
2026-04-12 08:09 28.71589 118.33880 34957 ft 521 kts 43°
2026-04-12 08:10 28.76484 118.39946 34959 ft 521 kts 43°
2026-04-12 08:10 28.81385 118.46028 34959 ft 521 kts 43°
2026-04-12 08:11 28.86293 118.52129 34958 ft 521 kts 43°
2026-04-12 08:11 28.91190 118.58225 34957 ft 521 kts 43°
2026-04-12 08:12 28.96083 118.64326 34960 ft 521 kts 43°
2026-04-12 08:12 29.00952 118.70405 34958 ft 521 kts 43°
2026-04-12 08:13 29.05875 118.76561 34963 ft 521 kts 44°
2026-04-12 08:13 29.10766 118.82687 34962 ft 522 kts 43°
2026-04-12 08:14 29.15657 118.88822 34960 ft 522 kts 43°
2026-04-12 08:14 29.20550 118.94967 34955 ft 523 kts 43°
2026-04-12 08:15 29.25419 119.01093 34954 ft 523 kts 43°
2026-04-12 08:15 29.30309 119.07259 34952 ft 523 kts 43°
2026-04-12 08:16 29.35196 119.13427 34952 ft 523 kts 43°
2026-04-12 08:16 29.40077 119.19606 34965 ft 523 kts 43°
2026-04-12 08:17 29.44962 119.25812 34949 ft 524 kts 43°
2026-04-12 08:17 29.49841 119.32020 34967 ft 524 kts 43°
2026-04-12 08:18 29.54725 119.38240 34961 ft 525 kts 43°
2026-04-12 08:18 29.59611 119.44465 34963 ft 525 kts 43°
2026-04-12 08:19 29.64499 119.50701 34964 ft 526 kts 43°
2026-04-12 08:19 29.69371 119.56991 34965 ft 526 kts 43°
2026-04-12 08:20 29.74237 119.63269 34962 ft 525 kts 41°
2026-04-12 08:20 29.79774 119.68523 34959 ft 509 kts 23°
2026-04-12 08:21 29.85903 119.72570 34966 ft 507 kts 22°
2026-04-12 08:21 29.91997 119.76545 34975 ft 507 kts 22°
2026-04-12 08:22 29.98114 119.80619 34987 ft 509 kts 22°
2026-04-12 08:22 30.04232 119.84744 34970 ft 510 kts 23°
2026-04-12 08:23 30.10155 119.88751 34976 ft 511 kts 23°
2026-04-12 08:23 30.16291 119.92903 34984 ft 512 kts 22°
2026-04-12 08:24 30.22397 119.97035 34976 ft 513 kts 22°
2026-04-12 08:24 30.28563 120.01216 34981 ft 513 kts 22°
2026-04-12 08:25 30.34720 120.05398 34983 ft 513 kts 22°
2026-04-12 08:25 30.40878 120.09586 34983 ft 513 kts 22°
2026-04-12 08:26 30.47030 120.13777 34978 ft 513 kts 22°
2026-04-12 08:26 30.53190 120.17977 34990 ft 512 kts 22°
2026-04-12 08:27 30.59330 120.22173 34983 ft 512 kts 22°
2026-04-12 08:27 30.65469 120.26374 34976 ft 512 kts 22°
2026-04-12 08:28 30.71594 120.30574 34988 ft 511 kts 22°
2026-04-12 08:28 30.77711 120.34773 34984 ft 511 kts 22°
2026-04-12 08:29 30.83792 120.38953 34986 ft 510 kts 22°
2026-04-12 08:29 30.86764 120.41353 34972 ft 522 kts 36°
2026-04-12 08:29 30.89208 120.44463 34991 ft 532 kts 50°
2026-04-12 08:30 30.91076 120.48205 34980 ft 540 kts 65°
2026-04-12 08:30 30.92242 120.52370 35018 ft 541 kts 73°
2026-04-12 08:30 30.94132 120.60855 34984 ft 542 kts 74°
2026-04-12 08:31 30.96126 120.69319 34982 ft 542 kts 73°
2026-04-12 08:31 30.98215 120.77772 34982 ft 542 kts 72°
2026-04-12 08:32 31.00298 120.86212 34982 ft 542 kts 72°
2026-04-12 08:32 31.02373 120.94671 34984 ft 543 kts 72°
2026-04-12 08:33 31.04441 121.03127 34982 ft 543 kts 72°
2026-04-12 08:33 31.06505 121.11592 34984 ft 543 kts 73°
2026-04-12 08:34 31.08617 121.20034 34985 ft 542 kts 71°
2026-04-12 08:34 31.10832 121.28440 34990 ft 542 kts 74°
2026-04-12 08:35 31.11806 121.37100 34989 ft 542 kts 92°
2026-04-12 08:35 31.10961 121.45724 34993 ft 537 kts 103°
2026-04-12 08:36 31.09701 121.54306 34981 ft 537 kts 103°
2026-04-12 08:36 31.08489 121.62900 34960 ft 537 kts 102°
2026-04-12 08:37 31.07327 121.71502 34963 ft 537 kts 102°
2026-04-12 08:37 31.06168 121.80123 34952 ft 538 kts 102°
2026-04-12 08:38 31.05000 121.88738 34956 ft 538 kts 102°
2026-04-12 08:38 31.03822 121.97346 34965 ft 538 kts 102°
2026-04-12 08:39 31.02638 122.05956 34970 ft 538 kts 102°
2026-04-12 08:39 31.01448 122.14575 34975 ft 538 kts 102°
2026-04-12 08:40 31.00257 122.23173 34976 ft 538 kts 101°
2026-04-12 08:40 30.99879 122.31886 34985 ft 540 kts 90°
2026-04-12 08:41 31.00012 122.40638 34971 ft 540 kts 90°
2026-04-12 08:41 31.00014 122.49337 34984 ft 540 kts 91°
2026-04-12 08:42 31.00003 122.58077 34976 ft 539 kts 91°
2026-04-12 08:42 30.99999 122.66816 34988 ft 540 kts 91°
2026-04-12 08:43 31.00007 122.75560 34969 ft 540 kts 91°
2026-04-12 08:43 31.00012 122.84316 34966 ft 539 kts 91°
2026-04-12 08:44 31.00030 122.93047 34965 ft 539 kts 87°
2026-04-12 08:44 31.00516 122.97374 34972 ft 537 kts 75°
2026-04-12 08:44 31.01595 123.01514 34981 ft 534 kts 65°
2026-04-12 08:45 31.03177 123.05408 34966 ft 528 kts 54°
2026-04-12 08:45 31.05230 123.08908 34995 ft 522 kts 48°
2026-04-12 08:45 31.09560 123.15732 34983 ft 523 kts 48°
2026-04-12 08:46 31.13863 123.22601 34981 ft 525 kts 49°
2026-04-12 08:47 31.20244 123.33039 34986 ft 527 kts 49°
2026-04-12 08:47 31.24497 123.40031 34989 ft 529 kts 49°
2026-04-12 08:48 31.28761 123.47041 34991 ft 530 kts 49°
2026-04-12 08:48 31.33036 123.54077 34997 ft 530 kts 49°
2026-04-12 08:49 31.37322 123.61102 35000 ft 531 kts 49°
2026-04-12 08:49 31.41622 123.68124 35004 ft 531 kts 49°
2026-04-12 08:50 31.45915 123.75156 35006 ft 531 kts 49°
2026-04-12 08:50 31.50203 123.82201 35014 ft 531 kts 49°
2026-04-12 08:51 31.54464 123.89215 35017 ft 531 kts 49°
2026-04-12 08:51 31.58735 123.96275 35023 ft 532 kts 51°
2026-04-12 08:52 31.62070 124.04106 35011 ft 543 kts 70°
2026-04-12 08:52 31.64001 124.12690 35032 ft 545 kts 74°
2026-04-12 08:53 31.65803 124.21336 35024 ft 544 kts 73°
2026-04-12 08:53 31.67662 124.29930 35031 ft 543 kts 73°
2026-04-12 08:54 31.69242 124.37059 35036 ft 542 kts 72°
2026-04-12 08:54 31.71142 124.45616 35040 ft 541 kts 73°
2026-04-12 08:55 31.73346 124.55619 35035 ft 541 kts 73°
2026-04-12 08:55 31.74902 124.62717 35038 ft 540 kts 73°
2026-04-12 08:56 31.76771 124.71274 35044 ft 540 kts 73°
2026-04-12 08:56 31.78632 124.79818 35044 ft 540 kts 73°
2026-04-12 08:57 31.80487 124.88367 35070 ft 541 kts 73°
2026-04-12 08:57 31.82165 124.97014 35041 ft 546 kts 82°
2026-04-12 08:58 31.82191 125.05928 35041 ft 545 kts 101°
2026-04-12 08:58 31.80742 125.14635 35057 ft 543 kts 104°
2026-04-12 08:59 31.79204 125.23318 35064 ft 543 kts 104°
2026-04-12 08:59 31.77742 125.32024 35064 ft 543 kts 103°
2026-04-12 09:00 31.76311 125.40749 35072 ft 543 kts 103°
2026-04-12 09:00 31.74883 125.49397 35073 ft 543 kts 103°
2026-04-12 09:01 31.73434 125.58099 35080 ft 543 kts 103°
2026-04-12 09:01 31.72727 125.66938 35071 ft 547 kts 87°
2026-04-12 09:02 31.73961 125.75692 35087 ft 541 kts 71°
2026-04-12 09:02 31.76030 125.84181 35075 ft 541 kts 72°
2026-04-12 09:02 31.77271 125.88312 35057 ft 533 kts 56°
2026-04-12 09:03 31.79318 125.91845 35110 ft 516 kts 40°
2026-04-12 09:03 31.81902 125.94691 35096 ft 503 kts 27°
2026-04-12 09:03 31.84838 125.96787 35094 ft 488 kts 13°
2026-04-12 09:04 31.91158 125.99454 35097 ft 483 kts
2026-04-12 09:04 31.97554 126.02017 35093 ft 487 kts
2026-04-12 09:05 32.03949 126.04714 35096 ft 489 kts
2026-04-12 09:05 32.10347 126.07434 35095 ft 489 kts
2026-04-12 09:06 32.16742 126.10145 35095 ft 486 kts
2026-04-12 09:06 32.23093 126.12839 35091 ft 484 kts
2026-04-12 09:07 32.29413 126.15525 35097 ft 482 kts
2026-04-12 09:07 32.35707 126.18203 35099 ft 480 kts
2026-04-12 09:08 32.41984 126.20878 35103 ft 479 kts
2026-04-12 09:08 32.48219 126.23539 35103 ft 479 kts
2026-04-12 09:09 32.54497 126.26222 35109 ft 480 kts
2026-04-12 09:09 32.60796 126.28920 35110 ft 482 kts
2026-04-12 09:10 32.67119 126.31634 35118 ft 485 kts
2026-04-12 09:10 32.73486 126.34372 35109 ft 487 kts
2026-04-12 09:11 32.79862 126.37120 35113 ft 489 kts
2026-04-12 09:11 32.86276 126.39888 35109 ft 490 kts
2026-04-12 09:12 32.92693 126.42663 35115 ft 491 kts
2026-04-12 09:12 32.99121 126.45445 35120 ft 492 kts
2026-04-12 09:13 33.05554 126.48220 35119 ft 492 kts
2026-04-12 09:13 33.11996 126.50985 35119 ft 491 kts
2026-04-12 09:14 33.18333 126.53711 35120 ft 491 kts
2026-04-12 09:14 33.24756 126.56482 35115 ft 491 kts
2026-04-12 09:15 33.31180 126.59259 35111 ft 491 kts
2026-04-12 09:15 33.37594 126.62034 35114 ft 490 kts
2026-04-12 09:16 33.44006 126.64821 35120 ft 491 kts
2026-04-12 09:16 33.50428 126.67625 35126 ft 491 kts
2026-04-12 09:17 33.56873 126.70030 35117 ft 473 kts 356°
2026-04-12 09:17 33.63296 126.70763 35126 ft 462 kts 351°
2026-04-12 09:18 33.69724 126.71331 35126 ft 465 kts 351°
2026-04-12 09:18 33.76184 126.71982 35126 ft 467 kts 352°
2026-04-12 09:19 33.82683 126.72676 35131 ft 469 kts 352°
2026-04-12 09:19 33.89189 126.73366 35135 ft 470 kts 351°
2026-04-12 09:20 33.98973 126.74387 35136 ft 471 kts 351°
2026-04-12 09:21 34.08761 126.75411 35135 ft 470 kts 351°
2026-04-12 09:21 34.15273 126.76095 35133 ft 469 kts 351°
2026-04-12 09:22 34.21766 126.76778 35129 ft 467 kts 351°
2026-04-12 09:22 34.28232 126.77459 35130 ft 466 kts 351°
2026-04-12 09:23 34.34695 126.78145 35135 ft 465 kts 351°
2026-04-12 09:23 34.41094 126.78827 35135 ft 464 kts 351°
2026-04-12 09:24 34.47524 126.79512 35133 ft 464 kts 351°
2026-04-12 09:24 34.53952 126.80197 35141 ft 464 kts 351°
2026-04-12 09:25 34.60386 126.80883 35142 ft 465 kts 351°
2026-04-12 09:25 34.66835 126.81573 35139 ft 465 kts 351°
2026-04-12 09:26 34.73280 126.82265 35143 ft 465 kts 351°
2026-04-12 09:26 34.79736 126.82957 35133 ft 466 kts 351°
2026-04-12 09:27 34.86213 126.83654 35131 ft 467 kts 351°
2026-04-12 09:27 34.92680 126.84351 35124 ft 467 kts 351°
2026-04-12 09:28 34.99157 126.85050 35127 ft 468 kts 351°
2026-04-12 09:28 35.05605 126.85747 35126 ft 468 kts 351°
2026-04-12 09:29 35.12092 126.86449 35127 ft 469 kts 352°
2026-04-12 09:29 35.18593 126.87153 35127 ft 470 kts 352°
2026-04-12 09:30 35.25106 126.87860 35121 ft 471 kts 352°
2026-04-12 09:30 35.31644 126.88571 35121 ft 471 kts 352°
2026-04-12 09:31 35.38175 126.89285 35106 ft 471 kts 352°
2026-04-12 09:31 35.44700 126.89996 35108 ft 472 kts 352°
2026-04-12 09:32 35.51246 126.90711 35114 ft 473 kts 353°
2026-04-12 09:32 35.57816 126.91429 35123 ft 474 kts 353°
2026-04-12 09:33 35.64243 126.92152 35088 ft 450 kts 353°
2026-04-12 09:33 35.67305 126.92501 35081 ft 436 kts 352°
2026-04-12 09:33 35.70280 126.92834 35088 ft 422 kts 352°
2026-04-12 09:33 35.73160 126.93152 35089 ft 408 kts 351°
2026-04-12 09:34 35.75937 126.93456 35089 ft 396 kts 351°
2026-04-12 09:34 35.81460 126.94029 35129 ft 403 kts 351°
2026-04-12 09:35 35.87106 126.94634 35129 ft 417 kts 352°
2026-04-12 09:35 35.92930 126.95282 35118 ft 422 kts 352°
2026-04-12 09:36 35.98757 126.95935 35107 ft 416 kts 352°
2026-04-12 09:36 36.04468 126.96578 35104 ft 410 kts 352°
2026-04-12 09:37 36.10150 126.97200 35102 ft 410 kts 352°
2026-04-12 09:37 36.15842 126.97827 35101 ft 411 kts 353°
2026-04-12 09:38 36.21541 126.98461 35096 ft 412 kts 353°
2026-04-12 09:38 36.27257 126.99098 35095 ft 412 kts 353°
2026-04-12 09:39 36.32966 126.99735 35093 ft 412 kts 353°
2026-04-12 09:39 36.38668 127.00359 35086 ft 410 kts 352°
2026-04-12 09:40 36.43334 127.00328 35100 ft 400 kts 346°
2026-04-12 09:40 36.43947 127.00296 35092 ft 400 kts 346°
2026-04-12 09:41 36.47397 127.00099 35084 ft 399 kts 346°
2026-04-12 09:41 36.52949 126.99840 35012 ft 399 kts 347°
2026-04-12 09:41 36.54771 126.99774 34893 ft 394 kts 348°
2026-04-12 09:42 36.58429 126.99646 34419 ft 392 kts 348°
2026-04-12 09:42 36.61164 126.99547 33851 ft 397 kts 349°
2026-04-12 09:42 36.63985 126.99434 32530 ft 416 kts 351°
2026-04-12 09:43 36.72979 126.99125 30473 ft 430 kts 352°
2026-04-12 09:43 36.75968 126.99327 30105 ft 434 kts
2026-04-12 09:43 36.78861 127.00479 29658 ft 441 kts 20°
2026-04-12 09:44 36.81475 127.02510 29209 ft 447 kts 36°
2026-04-12 09:44 36.83615 127.05330 28747 ft 451 kts 52°
2026-04-12 09:44 36.84694 127.07607 28437 ft 452 kts 64°
2026-04-12 09:44 36.85632 127.11337 27999 ft 451 kts 81°
2026-04-12 09:45 36.85728 127.15220 27582 ft 446 kts 98°
2026-04-12 09:45 36.84607 127.20069 27044 ft 436 kts 120°
2026-04-12 09:45 36.82955 127.23175 26638 ft 425 kts 136°
2026-04-12 09:45 36.81565 127.24858 26374 ft 418 kts 146°
2026-04-12 09:46 36.79155 127.26788 25997 ft 407 kts 159°
2026-04-12 09:46 36.76552 127.28050 25628 ft 397 kts 171°
2026-04-12 09:46 36.73862 127.28522 25249 ft 386 kts 183°
2026-04-12 09:46 36.71188 127.28628 24894 ft 383 kts 184°
2026-04-12 09:47 36.68532 127.28702 24535 ft 381 kts 184°
2026-04-12 09:47 36.65892 127.28782 24175 ft 379 kts 183°
2026-04-12 09:47 36.63264 127.28878 23817 ft 377 kts 183°
2026-04-12 09:47 36.60652 127.28986 23463 ft 374 kts 182°
2026-04-12 09:48 36.58057 127.29099 23074 ft 372 kts 182°
2026-04-12 09:48 36.55486 127.29138 22646 ft 367 kts 190°
2026-04-12 09:48 36.53033 127.28435 22215 ft 359 kts 204°
2026-04-12 09:48 36.50794 127.27115 21815 ft 354 kts 213°
2026-04-12 09:49 36.48804 127.25356 21411 ft 350 kts 223°
2026-04-12 09:49 36.47122 127.23186 21012 ft 348 kts 234°
2026-04-12 09:49 36.45845 127.20653 20589 ft 346 kts 245°
2026-04-12 09:49 36.45039 127.17847 20214 ft 346 kts 257°
2026-04-12 09:50 36.44735 127.14893 19857 ft 346 kts 269°
2026-04-12 09:50 36.44934 127.11912 19479 ft 348 kts 281°
2026-04-12 09:50 36.45627 127.09041 19114 ft 348 kts 292°
2026-04-12 09:50 36.46796 127.06408 18773 ft 349 kts 304°
2026-04-12 09:51 36.48390 127.04140 18438 ft 349 kts 317°
2026-04-12 09:51 36.50331 127.02336 18077 ft 349 kts 328°
2026-04-12 09:51 36.52418 127.00926 17905 ft 342 kts 333°
2026-04-12 09:51 36.54645 126.99897 17447 ft 344 kts 346°
2026-04-12 09:52 36.57040 126.99508 17152 ft 341 kts 357°
2026-04-12 09:52 36.59407 126.99451 16908 ft 340 kts 358°
2026-04-12 09:52 36.61765 126.99413 16663 ft 339 kts 358°
2026-04-12 09:52 36.64093 126.99368 16434 ft 340 kts 358°
2026-04-12 09:53 36.66470 126.99311 16182 ft 344 kts 357°
2026-04-12 09:53 36.68864 126.99243 15929 ft 343 kts 357°
2026-04-12 09:53 36.71245 126.99173 15670 ft 341 kts 357°
2026-04-12 09:53 36.73607 126.99027 15422 ft 337 kts 349°
2026-04-12 09:54 36.75818 126.98138 15195 ft 333 kts 336°
2026-04-12 09:54 36.77938 126.96990 14932 ft 331 kts 335°
2026-04-12 09:54 36.80039 126.95831 14697 ft 329 kts 335°
2026-04-12 09:54 36.82130 126.94691 14461 ft 327 kts 335°
2026-04-12 09:55 36.84219 126.93573 14241 ft 326 kts 335°
2026-04-12 09:55 36.86303 126.92467 14001 ft 325 kts 335°
2026-04-12 09:55 36.88387 126.91366 13776 ft 325 kts 335°
2026-04-12 09:55 36.90464 126.90267 13505 ft 324 kts 335°
2026-04-12 09:56 36.92410 126.88885 13217 ft 321 kts 317°
2026-04-12 09:56 36.93767 126.86716 12978 ft 317 kts 296°
2026-04-12 09:56 36.94474 126.84126 12715 ft 315 kts 281°
2026-04-12 09:56 36.94880 126.81442 12460 ft 314 kts 280°
2026-04-12 09:57 36.95261 126.78780 12157 ft 310 kts 280°
2026-04-12 09:57 36.95651 126.76136 11871 ft 307 kts 280°
2026-04-12 09:57 36.96045 126.73533 11735 ft 304 kts 281°
2026-04-12 09:57 36.96449 126.70929 11560 ft 306 kts 281°
2026-04-12 09:58 36.96859 126.68297 11353 ft 311 kts 281°
2026-04-12 09:58 36.97275 126.65637 11198 ft 312 kts 281°
2026-04-12 09:58 36.97688 126.62975 10998 ft 311 kts 281°
2026-04-12 09:58 36.98100 126.60318 10825 ft 311 kts 281°
2026-04-12 09:59 36.98519 126.57709 10705 ft 301 kts 285°
2026-04-12 09:59 36.99366 126.55370 10598 ft 292 kts 305°
2026-04-12 09:59 37.00703 126.53500 10471 ft 286 kts 313°
2026-04-12 09:59 37.02102 126.51729 10173 ft 286 kts 314°
2026-04-12 10:00 37.03508 126.49968 9838 ft 286 kts 314°
2026-04-12 10:00 37.04911 126.48213 9580 ft 284 kts 314°
2026-04-12 10:00 37.06294 126.46455 9256 ft 283 kts 314°
2026-04-12 10:00 37.07651 126.44720 8932 ft 282 kts 313°
2026-04-12 10:01 37.09020 126.42966 8616 ft 281 kts 313°
2026-04-12 10:01 37.10381 126.41218 8313 ft 279 kts 313°
2026-04-12 10:01 37.11743 126.39491 8003 ft 278 kts 316°
2026-04-12 10:01 37.13262 126.38003 7692 ft 277 kts 324°
2026-04-12 10:02 37.14849 126.36638 7342 ft 277 kts 324°
2026-04-12 10:02 37.16471 126.35263 6950 ft 280 kts 324°
2026-04-12 10:02 37.18050 126.33906 6781 ft 273 kts 324°
2026-04-12 10:02 37.19554 126.32593 6503 ft 272 kts 324°
2026-04-12 10:03 37.21277 126.31629 6166 ft 274 kts 346°
2026-04-12 10:03 37.23168 126.31597 5974 ft 276 kts 13°
2026-04-12 10:03 37.24729 126.32586 5747 ft 280 kts 39°
2026-04-12 10:03 37.25920 126.34506 5474 ft 281 kts 65°
2026-04-12 10:04 37.26318 126.36879 5261 ft 278 kts 92°
2026-04-12 10:04 37.25886 126.39222 4960 ft 277 kts 116°
2026-04-12 10:04 37.24920 126.41267 4677 ft 275 kts 123°
2026-04-12 10:04 37.23854 126.43294 4358 ft 275 kts 123°
2026-04-12 10:05 37.22820 126.45266 4197 ft 271 kts 123°
2026-04-12 10:05 37.21811 126.47207 4101 ft 259 kts 123°
2026-04-12 10:05 37.20862 126.49051 3977 ft 245 kts 122°
2026-04-12 10:05 37.19964 126.50800 3858 ft 232 kts 122°
2026-04-12 10:06 37.19107 126.52486 3584 ft 227 kts 118°
2026-04-12 10:06 37.18724 126.54364 3202 ft 226 kts 83°
2026-04-12 10:06 37.19218 126.56193 2957 ft 221 kts 58°
2026-04-12 10:06 37.20071 126.57788 2756 ft 221 kts 53°
2026-04-12 10:07 37.20977 126.59356 2476 ft 222 kts 53°
2026-04-12 10:07 37.21990 126.60759 2340 ft 213 kts 31°
2026-04-12 10:07 37.23338 126.61208 2269 ft 199 kts 349°
2026-04-12 10:07 37.24558 126.60563 2269 ft 188 kts 332°
2026-04-12 10:08 37.25737 126.59807 2177 ft 192 kts 333°
2026-04-12 10:08 37.26911 126.59030 2131 ft 189 kts 329°
2026-04-12 10:08 37.28013 126.58157 2063 ft 187 kts 326°
2026-04-12 10:08 37.29073 126.57243 1995 ft 182 kts 324°
2026-04-12 10:09 37.30102 126.56331 1951 ft 181 kts 324°
2026-04-12 10:09 37.31135 126.55408 1910 ft 184 kts 324°
2026-04-12 10:09 37.32183 126.54471 1873 ft 186 kts 324°
2026-04-12 10:09 37.33235 126.53530 1816 ft 185 kts 324°
2026-04-12 10:10 37.34278 126.52596 1742 ft 185 kts 324°
2026-04-12 10:10 37.35324 126.51661 1630 ft 182 kts 324°
2026-04-12 10:10 37.36328 126.50763 1589 ft 173 kts 324°
2026-04-12 10:10 37.37277 126.49914 1595 ft 164 kts 324°
2026-04-12 10:11 37.38185 126.49102 1452 ft 157 kts 323°
2026-04-12 10:11 37.39060 126.48319 1267 ft 152 kts 323°
2026-04-12 10:11 37.39919 126.47552 1049 ft 151 kts 324°
2026-04-12 10:11 37.40778 126.46789 852 ft 151 kts 323°
2026-04-12 10:12 37.41629 126.46028 670 ft 151 kts 323°
2026-04-12 10:12 37.42478 126.45265 471 ft 149 kts 323°
2026-04-12 10:12 37.43307 126.44520 273 ft 149 kts 323°
2026-04-12 10:12 37.44157 126.43768 71 ft 149 kts 324°
2026-04-12 10:13 37.44950 126.43054 33 ft 129 kts 324°
2026-04-12 10:13 37.45564 126.42512 31 ft 86 kts 325°
2026-04-12 10:13 37.45933 126.42184 30 ft 43 kts 326°
2026-04-12 10:13 37.46128 126.42067 32 ft 29 kts 346°
2026-04-12 10:14 37.46319 126.42035 32 ft 27 kts 354°
2026-04-12 10:14 37.46430 126.42000 32 ft 11 kts 330°
2026-04-12 10:14 37.46490 126.41976 32 ft 8 kts 10°
2026-04-12 10:14 37.46530 126.42022 31 ft 8 kts 54°
2026-04-12 10:15 37.46561 126.42076 31 ft 8 kts 54°
2026-04-12 10:15 37.46594 126.42134 32 ft 9 kts 54°
2026-04-12 10:15 37.46638 126.42216 32 ft 13 kts 54°
2026-04-12 10:15 37.46687 126.42312 31 ft 10 kts 77°
2026-04-12 10:16 37.46656 126.42381 32 ft 10 kts 144°
2026-04-12 10:16 37.46596 126.42435 31 ft 12 kts 144°
2026-04-12 10:16 37.46515 126.42507 30 ft 16 kts 145°
2026-04-12 10:16 37.46413 126.42598 32 ft 20 kts 143°
2026-04-12 10:17 37.46293 126.42704 31 ft 22 kts 146°
2026-04-12 10:17 37.46157 126.42825 30 ft 25 kts 144°
2026-04-12 10:17 37.46010 126.42955 30 ft 26 kts 144°
2026-04-12 10:17 37.45869 126.43082 30 ft 24 kts 144°
2026-04-12 10:18 37.45738 126.43198 32 ft 23 kts 144°
2026-04-12 10:18 37.45614 126.43309 32 ft 22 kts 146°
2026-04-12 10:18 37.45490 126.43418 30 ft 21 kts 145°
2026-04-12 10:18 37.45374 126.43523 32 ft 20 kts 147°
2026-04-12 10:19 37.45261 126.43624 32 ft 20 kts 145°
2026-04-12 10:19 37.45152 126.43720 32 ft 19 kts 143°
2026-04-12 10:19 37.45047 126.43813 30 ft 18 kts 143°
2026-04-12 10:19 37.44949 126.43900 32 ft 14 kts 144°
2026-04-12 10:20 37.44910 126.43963 32 ft 9 kts 94°
2026-04-12 10:20 37.44936 126.44029 32 ft 8 kts 55°
2026-04-12 10:20 37.44970 126.44088 32 ft 8 kts 54°
2026-04-12 10:20 37.44996 126.44148 30 ft 8 kts 81°
2026-04-12 10:21 37.44993 126.44213 32 ft 8 kts 64°
2026-04-12 10:21 37.45013 126.44270 32 ft 7 kts 100°
2026-04-12 10:21 37.44983 126.44318 32 ft 7 kts 128°
2026-04-12 10:21 37.44953 126.44366 32 ft 7 kts 127°
2026-04-12 10:22 37.44926 126.44414 32 ft 7 kts 120°
2026-04-12 10:22 37.44902 126.44462 32 ft 7 kts 130°
2026-04-12 10:22 37.44874 126.44507 31 ft 6 kts 126°
2026-04-12 10:22 37.44847 126.44553 31 ft 7 kts 126°
2026-04-12 10:23 37.44814 126.44605 31 ft 8 kts 141°
2026-04-12 10:23 37.44757 126.44612 32 ft 9 kts 191°
2026-04-12 10:23 37.44699 126.44583 32 ft 9 kts 217°
2026-04-12 10:23 37.44668 126.44517 32 ft 9 kts 264°
2026-04-12 10:24 37.44698 126.44455 31 ft 9 kts 322°
2026-04-12 10:24 37.44754 126.44404 31 ft 11 kts 324°
2026-04-12 10:24 37.44816 126.44349 32 ft 11 kts 324°
2026-04-12 10:24 37.44876 126.44295 32 ft 10 kts 324°
2026-04-12 10:25 37.44934 126.44244 32 ft 10 kts 324°
2026-04-12 10:25 37.44992 126.44199 32 ft 10 kts 343°
2026-04-12 10:25 37.45030 126.44209 32 ft 3 kts 62°
2026-04-12 10:25 37.45027 126.44234 32 ft 3 kts 96°
2026-04-12 10:26 37.45024 126.44268 32 ft 5 kts 97°
2026-04-12 10:26 37.45021 126.44316 32 ft 6 kts 94°
2026-04-12 10:26 37.45017 126.44374 32 ft 7 kts 94°
2026-04-12 10:26 37.45014 126.44432 32 ft 7 kts 94°
2026-04-12 10:27 37.45012 126.44470 32 ft 1 kts 94°
2026-04-12 10:27 37.45011 126.44475 32 ft 0 kts 94°
2026-04-12 10:27 37.45011 126.44476 32 ft 0 kts 94°